Wind_Speed
28 28 27 27 26 27 27 27 26 25 25 24 23 23 23 23 24 24 24 24 24 24 25 24 24 25 25 25 25 26 26 26 27 27 27 28 29 29 30 30 30 30 30
28 28 27 27 27 27 26 27 27 27 26 26 26 25 25 25 26 26 26 26 26 26 26 26 26 27 27 27 27 28 28 28 28 29 29 30 30 31 31 31 31 32 31
29 29 28 28 28 28 28 28 28 28 27 27 27 27 27 27 27 27 28 28 28 27 27 27 28 28 29 29 29 30 30 30 31 31 32 32 33 33 33 33 33 33 33
30 30 29 29 29 28 29 29 29 29 28 29 29 29 29 29 29 29 29 29 29 29 29 29 29 30 31 31 32 32 33 33 33 34 34 34 35 35 35 35 35 35 35
31 31 30 29 30 30 30 30 30 30 30 31 31 31 31 31 30 30 31 31 31 32 32 32 32 33 34 34 34 35 35 35 36 36 36 36 37 37 37 37 37 37 37
31 31 31 30 30 31 31 31 31 32 32 32 33 33 33 34 33 33 33 33 34 33 34 35 35 36 36 36 36 37 37 38 38 38 38 38 38 38 38 38 38 39 38
33 32 32 32 32 32 32 33 33 33 33 34 35 35 35 35 36 36 35 35 35 35 36 36 37 37 38 38 39 39 39 40 40 40 40 40 40 40 40 40 40 39 40
34 35 34 33 33 33 34 34 34 34 35 35 35 36 36 37 37 38 37 37 37 37 38 38 38 39 40 40 40 41 41 41 42 42 41 41 41 41 41 41 41 41 41
35 35 34 34 35 35 35 35 36 36 37 37 37 37 37 37 37 38 39 39 38 39 40 40 41 41 42 43 43 43 43 43 43 43 43 43 43 43 43 42 43 43 42
36 36 35 35 35 36 36 36 37 37 38 38 39 39 38 38 39 39 40 41 40 41 41 41 42 43 43 44 44 44 44 44 44 44 45 45 45 44 44 44 44 44 44
36 37 36 36 37 38 38 38 38 39 39 40 40 39 40 40 41 41 41 42 42 42 42 42 42 44 45 45 45 45 45 45 46 46 46 46 46 46 45 45 45 45 45
38 38 38 37 38 39 39 39 39 39 40 40 41 41 41 41 41 42 43 43 43 43 43 44 44 45 46 46 46 47 47 47 47 47 47 47 47 47 46 46 46 46 46
39 39 39 39 39 39 39 39 40 40 40 41 42 42 43 43 43 43 44 44 44 44 44 45 46 46 47 47 48 48 48 48 49 48 48 48 48 48 47 47 47 47 47
38 39 40 40 39 38 38 38 40 41 42 42 43 43 44 44 45 45 45 45 45 46 46 47 47 48 48 49 49 49 49 50 50 50 49 49 49 49 49 48 48 48 48
38 39 40 39 40 40 40 40 41 42 43 43 44 44 45 46 47 47 47 47 48 48 48 49 49 50 50 50 50 50 50 50 50 50 50 50 51 51 51 51 51 51 51
37 38 39 39 40 41 42 42 42 43 43 44 45 46 46 48 49 49 49 49 50 51 50 50 51 52 52 52 52 52 51 51 51 52 52 53 53 53 53 53 53 53 53
36 38 38 39 40 41 43 42 43 44 44 45 46 46 47 48 49 50 50 50 51 52 52 51 52 52 53 54 54 54 54 53 53 54 54 54 54 54 54 54 54 54 53
37 38 38 39 40 41 43 43 43 44 44 45 46 47 48 48 49 50 50 51 52 52 52 52 53 53 54 54 55 55 55 55 55 55 56 55 55 55 55 55 55 54 53
39 39 40 40 41 42 43 44 44 44 45 45 46 47 48 49 49 50 50 51 52 52 53 53 53 54 55 55 56 56 56 56 56 56 57 57 56 56 55 55 54 54 54
39 40 40 41 42 43 43 43 44 45 45 46 47 48 49 49 49 49 50 51 51 53 53 54 54 54 55 55 56 56 56 56 56 56 56 56 56 56 55 55 55 56 56
40 40 41 41 42 43 43 44 44 45 46 47 47 48 48 49 50 50 51 51 52 53 54 55 55 55 55 56 56 56 55 55 55 55 55 55 55 55 55 55 56 57 56
41 41 42 42 42 43 44 46 46 46 47 47 47 48 49 50 51 51 52 53 53 54 55 55 56 55 55 55 55 55 55 54 54 54 54 54 55 55 55 55 55 56 55
41 43 43 43 44 45 45 46 47 47 47 48 48 49 50 50 51 52 53 53 54 55 55 56 55 55 55 55 54 53 53 53 52 53 53 52 53 53 54 54 53 53 53
41 42 43 44 44 45 45 45 46 47 47 48 49 50 50 51 52 52 53 54 54 54 55 56 55 55 55 54 53 53 53 53 53 53 54 52 52 52 52 52 52 52 52
41 42 42 43 43 44 44 45 46 47 48 48 49 50 51 51 52 53 54 54 54 54 55 54 54 54 54 53 53 53 53 54 53 52 53 53 52 52 51 50 51 51 51
41 42 42 42 43 44 44 45 45 47 48 48 49 50 51 51 52 52 53 53 53 53 53 53 52 52 52 52 52 53 53 53 53 52 52 52 52 52 51 50 50 50 50
Wind_Direction
250 252 256 258 260 262 265 267 268 270 272 274 277 281 283 285 286 288 289 289 289 289 290 290 290 290 291 291 290 291 293 294 293 293 293 293 294 295 294 293 292 291 290
250 252 255 258 261 263 265 268 267 269 271 273 276 278 281 283 284 286 287 288 288 288 288 289 289 289 290 290 290 290 291 292 293 293 293 293 294 294 294 293 291 290 288
250 252 255 259 262 263 265 268 268 268 270 272 275 277 279 281 283 284 285 286 286 287 287 287 288 288 288 289 289 290 290 291 292 292 292 293 293 294 293 292 290 289 288
250 252 255 258 260 263 265 266 269 269 270 271 274 277 278 280 282 284 285 284 285 285 285 286 288 288 287 288 289 289 289 290 290 291 291 292 292 292 292 292 290 289 287
249 251 253 256 259 263 265 267 267 268 270 273 274 276 278 279 281 283 283 284 284 284 284 286 287 287 287 286 287 288 288 288 289 290 291 291 291 291 291 291 290 288 287
248 251 253 255 259 263 266 268 269 269 270 273 274 276 277 278 279 280 281 282 283 283 283 285 286 286 286 286 287 287 287 288 288 288 289 290 290 291 290 290 290 288 287
251 252 253 257 260 264 267 268 270 271 271 272 274 276 276 277 278 279 280 282 282 283 284 284 285 286 286 286 286 286 286 286 287 288 288 288 289 290 290 290 289 288 287
254 255 255 258 262 266 269 269 271 273 274 275 276 278 278 278 278 279 280 282 283 282 283 284 285 285 285 286 286 286 286 286 287 287 287 288 289 289 289 289 289 287 287
254 255 256 258 262 266 269 269 271 273 275 276 277 278 279 279 279 280 281 281 283 283 283 283 284 284 285 286 286 285 285 285 286 286 286 287 287 288 287 287 288 287 286
255 255 256 260 263 266 269 270 272 273 275 276 277 277 278 279 278 279 281 281 283 284 282 282 283 285 285 285 285 285 285 285 285 285 285 285 286 286 286 287 287 287 286
257 256 257 260 264 266 269 270 271 273 275 275 276 276 277 278 278 279 279 280 282 283 283 283 283 284 284 284 284 284 284 285 285 285 285 285 285 285 285 285 286 286 285
258 257 258 262 265 266 268 269 270 272 274 275 275 275 276 278 278 278 278 279 280 281 282 283 284 284 284 284 284 283 284 284 285 285 284 284 284 284 285 285 285 285 285
259 259 261 263 265 267 269 271 271 271 274 275 275 276 276 277 277 278 279 279 280 280 281 282 284 284 284 284 283 284 284 284 284 284 284 284 284 284 284 284 285 285 285
260 262 262 266 266 268 270 271 270 271 273 276 276 276 277 277 278 278 279 279 279 280 281 282 283 283 284 283 283 283 283 284 284 284 283 283 283 283 283 284 284 284 284
263 264 263 268 267 268 270 270 271 273 275 276 277 277 278 279 279 279 279 279 280 280 281 281 282 282 282 283 283 283 283 283 283 283 283 283 283 282 283 283 283 283 283
266 264 266 268 268 268 270 272 273 274 275 276 277 278 279 279 280 280 280 280 280 281 281 281 282 282 283 283 283 284 284 283 283 283 283 283 282 282 283 283 283 283 282
268 267 267 269 270 271 272 272 273 274 275 276 277 278 279 279 280 280 281 281 282 282 282 282 282 283 283 283 283 284 284 284 284 283 283 282 282 283 283 283 283 283 283
269 269 270 271 272 273 274 274 274 275 276 277 278 279 280 280 280 281 282 282 282 283 283 283 283 283 284 284 284 284 284 284 284 283 283 283 283 283 283 283 283 283 283
270 270 272 274 275 276 277 276 276 277 277 278 279 280 281 281 282 282 283 283 283 283 284 284 284 284 284 284 285 285 285 285 284 283 283 283 283 283 284 283 283 283 283
271 272 274 276 276 276 277 277 278 278 279 279 279 280 281 282 282 283 283 284 284 284 284 285 285 285 285 285 285 286 286 286 285 285 284 284 284 284 284 284 284 283 283
273 275 277 277 277 277 277 278 279 279 280 280 280 281 282 282 282 283 284 284 284 284 284 285 285 286 286 286 286 286 286 286 285 285 285 285 285 285 284 284 284 284 284
276 276 278 278 278 278 278 278 278 279 280 280 281 282 282 283 283 284 284 284 284 284 285 285 286 286 286 287 287 288 287 286 286 285 285 286 286 286 285 285 285 285 285
279 278 279 279 278 279 279 279 279 280 281 281 282 283 284 284 285 285 285 285 285 286 286 286 286 287 287 287 287 288 288 288 287 286 286 287 287 287 287 286 286 285 284
281 281 280 279 279 280 279 280 280 280 282 283 284 284 284 285 286 285 285 286 286 286 286 286 287 287 287 287 287 288 288 288 287 287 287 287 287 287 287 287 287 286 285
284 283 283 281 281 281 281 282 282 282 283 284 285 285 285 286 285 285 286 287 287 287 286 287 287 287 287 286 287 288 288 289 288 288 288 287 287 287 287 288 287 287 286
284 284 284 284 284 283 283 283 283 284 284 285 285 286 287 287 287 287 287 287 288 288 287 287 287 286 286 286 288 289 289 290 290 288 287 288 288 287 287 288 287 287 286
Height
5817 5819 5821 5822 5823 5824 5825 5826 5826 5827 5827 5827 5827 5827 5827 5826 5826 5825 5825 5824 5823 5822 5822 5821 5820 5819 5818 5817 5816 5815 5814 5813 5812 5811 5809 5808 5806 5805 5803 5802 5801 5799 5798
5811 5813 5815 5816 5817 5818 5819 5820 5820 5821 5821 5821 5822 5822 5821 5821 5821 5820 5819 5819 5818 5817 5816 5815 5815 5814 5813 5811 5810 5809 5808 5807 5806 5805 5803 5802 5800 5798 5797 5795 5794 5792 5791
5805 5807 5809 5810 5811 5812 5813 5814 5814 5815 5815 5815 5816 5816 5816 5815 5815 5814 5814 5813 5812 5811 5810 5810 5809 5808 5806 5805 5804 5803 5802 5801 5799 5798 5796 5795 5793 5791 5790 5788 5787 5785 5784
5798 5800 5802 5804 5805 5806 5806 5807 5808 5808 5809 5809 5809 5810 5809 5809 5808 5808 5807 5806 5806 5805 5804 5803 5802 5801 5800 5799 5798 5796 5795 5794 5792 5791 5789 5787 5786 5784 5782 5781 5779 5778 5776
5791 5793 5795 5797 5798 5799 5800 5800 5801 5801 5802 5802 5802 5803 5802 5802 5801 5801 5800 5800 5799 5798 5797 5796 5795 5794 5793 5791 5790 5789 5788 5786 5785 5783 5781 5779 5778 5776 5774 5773 5771 5769 5768
5783 5785 5788 5790 5791 5792 5793 5793 5793 5794 5794 5795 5795 5795 5795 5794 5794 5794 5793 5792 5791 5790 5790 5789 5787 5786 5785 5784 5782 5781 5779 5778 5776 5775 5773 5771 5769 5767 5766 5764 5762 5760 5759
5776 5778 5780 5782 5784 5784 5785 5786 5786 5786 5787 5787 5787 5787 5787 5787 5786 5785 5785 5784 5783 5782 5781 5780 5779 5778 5776 5775 5773 5772 5770 5769 5767 5765 5763 5762 5760 5758 5756 5754 5753 5751 5749
5768 5770 5772 5774 5776 5776 5777 5777 5778 5778 5779 5779 5779 5779 5779 5779 5778 5777 5776 5776 5775 5774 5773 5771 5770 5769 5767 5766 5764 5763 5761 5759 5757 5756 5754 5752 5750 5748 5746 5744 5743 5741 5739
5760 5762 5764 5766 5767 5768 5768 5769 5770 5770 5770 5770 5770 5771 5770 5770 5769 5769 5768 5767 5766 5765 5764 5762 5761 5759 5758 5756 5754 5753 5751 5749 5747 5745 5744 5742 5740 5738 5736 5734 5732 5730 5728
5752 5754 5755 5757 5758 5759 5760 5760 5760 5761 5762 5761 5761 5761 5761 5761 5761 5760 5759 5758 5756 5755 5754 5752 5751 5749 5747 5746 5744 5742 5740 5738 5736 5734 5733 5731 5729 5727 5725 5723 5721 5719 5717
5744 5745 5747 5748 5749 5750 5751 5751 5751 5752 5752 5752 5752 5751 5751 5751 5750 5750 5750 5748 5747 5745 5744 5742 5740 5739 5737 5735 5733 5731 5729 5727 5725 5723 5721 5719 5717 5715 5713 5711 5709 5707 5705
5735 5737 5738 5739 5741 5741 5742 5742 5742 5742 5742 5742 5742 5741 5741 5740 5740 5739 5739 5738 5736 5735 5733 5731 5729 5727 5725 5723 5721 5719 5717 5715 5713 5711 5709 5707 5705 5703 5701 5699 5697 5695 5693
5726 5728 5729 5730 5731 5732 5732 5732 5732 5732 5732 5732 5731 5731 5730 5729 5729 5728 5727 5726 5725 5724 5722 5720 5718 5716 5713 5711 5709 5707 5705 5703 5701 5699 5696 5694 5692 5690 5688 5686 5684 5682 5680
5718 5719 5720 5721 5721 5722 5722 5722 5722 5723 5722 5722 5721 5720 5719 5718 5717 5716 5715 5714 5714 5713 5711 5709 5706 5703 5701 5699 5697 5695 5693 5690 5688 5686 5683 5681 5679 5677 5675 5673 5671 5669 5667
5709 5710 5711 5711 5712 5712 5712 5712 5712 5712 5711 5711 5710 5709 5708 5706 5705 5704 5703 5702 5701 5700 5699 5696 5693 5690 5688 5686 5684 5681 5679 5677 5674 5672 5670 5667 5665 5663 5661 5659 5657 5655 5653
5700 5701 5701 5701 5702 5702 5702 5702 5701 5701 5700 5699 5698 5697 5696 5694 5693 5692 5690 5688 5687 5686 5685 5684 5680 5677 5675 5672 5670 5668 5665 5663 5660 5658 5656 5653 5651 5648 5646 5644 5642 5640 5637
5691 5691 5691 5691 5691 5691 5691 5691 5690 5689 5689 5688 5686 5685 5684 5682 5680 5679 5677 5675 5673 5672 5671 5670 5666 5663 5661 5658 5656 5653 5651 5648 5646 5643 5641 5638 5636 5633 5631 5629 5626 5624 5622
5681 5681 5681 5681 5681 5680 5680 5679 5678 5677 5677 5676 5674 5673 5671 5669 5667 5665 5664 5662 5660 5658 5656 5655 5652 5649 5647 5644 5641 5639 5636 5633 5630 5628 5625 5623 5620 5618 5615 5613 5610 5608 5606
5671 5671 5671 5670 5670 5669 5668 5667 5666 5665 5664 5663 5662 5660 5658 5656 5654 5652 5650 5648 5646 5644 5641 5640 5638 5635 5632 5629 5627 5624 5620 5617 5614 5612 5609 5607 5604 5602 5599 5597 5594 5592 5590
5660 5660 5659 5658 5658 5657 5656 5656 5654 5653 5652 5651 5649 5647 5645 5643 5641 5639 5637 5634 5632 5629 5627 5625 5623 5620 5617 5614 5611 5609 5606 5602 5599 5596 5593 5590 5588 5586 5583 5581 5578 5576 5574
5650 5649 5648 5647 5646 5645 5644 5643 5642 5641 5640 5638 5636 5634 5632 5630 5627 5625 5623 5620 5617 5615 5612 5609 5607 5605 5602 5599 5596 5593 5590 5587 5583 5580 5577 5574 5572 5569 5566 5564 5561 5559 5556
5639 5638 5636 5635 5634 5633 5632 5631 5630 5629 5627 5625 5623 5621 5619 5616 5613 5611 5608 5606 5603 5600 5597 5594 5592 5589 5586 5583 5580 5577 5573 5571 5569 5566 5562 5559 5555 5553 5550 5547 5544 5541 5539
5627 5626 5624 5623 5622 5621 5619 5618 5617 5615 5614 5612 5610 5608 5605 5603 5599 5597 5594 5591 5588 5584 5582 5579 5576 5573 5570 5568 5565 5561 5558 5555 5552 5549 5546 5545 5540 5537 5534 5530 5527 5525 5522
5616 5614 5612 5611 5609 5608 5606 5605 5604 5602 5600 5598 5596 5594 5592 5589 5585 5582 5579 5576 5573 5569 5566 5563 5561 5558 5554 5551 5548 5546 5543 5540 5537 5533 5529 5528 5525 5522 5519 5515 5511 5509 5506
5604 5602 5600 5599 5597 5596 5594 5592 5591 5589 5588 5585 5583 5580 5577 5574 5571 5568 5565 5562 5558 5555 5551 5547 5544 5541 5538 5535 5532 5530 5527 5524 5522 5519 5514 5512 5509 5507 5505 5501 5496 5493 5490
5593 5591 5589 5587 5585 5584 5582 5580 5578 5577 5575 5573 5570 5567 5563 5559 5556 5553 5550 5546 5543 5539 5536 5532 5529 5526 5523 5520 5517 5514 5511 5508 5505 5503 5499 5496 5493 5489 5489 5487 5482 5478 5474